Weather in Blenheim

New Zealand     41°30′48″S   173°57′38″E
В апреле 2022 года жителям России запретили посещать сайт meteo.paraplan.net по решению Генеральной прокуратуры. Аудитория сайта уменьшилась в 10 раз. Владельцы сайта не видят смысла в поддержке погодного сервера в таких условиях. Сайт будет закрыт в октябре.
temp.,
°C
wind,
m/s
gust,
m/s
humid.,
%
clouds,
%
prec.,
mm/h
press.,
hPa
HPBL,
m
29 september, thu
thu2901:00+12nw3690100 0.0 1020223
04:00+11nw3496100 0.6 1018126
07:00+12nnw2497100 2.2 1017128
10:00+12nnw2696100 1.4 1017316
13:00+13nnw51291100 2.1 1015679
16:00+14nnw51091100 1.3 1014706
19:00+13nw249396 1.6 101497
22:00+11se459696 0.1 1017136
30 september, fri
fri3001:00+9sse4692100 1.2 1019369
04:00+9se4890100 0.8 1020633
07:00+8sse81290100 1.6 1022926
10:00+6sse91392100 0.8 1025875
13:00+7sse71084100 1.1 1026982
16:00+7sse91176100 0.4 10261108
19:00+6sse7107873 0.6 1027930
22:00+4s5981100 0.1 1027436
1 october, sat
sat101:00+6s51072100 0.1 1027680
04:00+6s5970100 0.0 1025739
07:00+6s5870100 0.0 1024645
10:00+7s5874100 0.1 1024790
13:00+8s5880100 0.3 1021783
16:00+9sse4783100 0.2 1019811
19:00+8s3685100 0.3 1017386
22:00+9ssw4786100 0.2 1017385
2 october, sun
sun201:00+9ssw3693100 1.4 1016256
04:00+9s3794100 1.3 1014294
07:00+9s4995100 2.0 1014629
10:00+10sse4995100 0.9 1013625
13:00+10s4893100 1.6 1012603
16:00+10s3792100 0.9 1009537
19:00+10s3593100 1.8 1008231
22:00+10ssw2491100 0.3 1008188
3 october, mon
mon301:00+10sw2290100 0.6 100677
04:00+10ssw1189100 0.1 100543
07:00+10sse1292100 0.2 1005127
10:00+11sse2592100 0.1 1006364
13:00+10se41089100 1.4 1008606
16:00+12se5108096 0.1 1008849
19:00+10se498582 0.1 1010694
22:00+9sse368999 0.1 1011373